Location: Warner Observatory
(35.1353°N, 89.5455°W)
Time: 11:59:50
(UTC-05:00)

Amateur Radio Satellites - All Passes

Search period start: 23 July 2016 11:29
Search period end: 24 July 2016 11:29
Location: Warner Observatory, 35.1353°N, 89.5455°W

Satellite Date Start Highest point End Downlink Frequencies (MHz)
Time Altitude Azimuth
Cosmos 2491 23 Jul 11:30:37 11:36:32 21° 279° (W) 11:42:30 435.465 / 435.565
CUBEBUG 1 23 Jul 11:31:40 11:33:26 12° 92° (E) 11:35:11 437.445
AUBIESAT-1 23 Jul 11:33:21 11:37:45 45° 292° (WNW) 11:42:10 437.475
Cosmos 2504 23 Jul 11:37:24 11:46:06 75° 93° (E) 11:54:59 435.465 / 435.565
DELFI C3 23 Jul 11:41:44 11:44:25 18° 291° (WNW) 11:47:06 145.870
NANOSAT C BR1 23 Jul 11:43:09 11:47:20 73° 76° (ENE) 11:51:35 145.865
DUCHIFAT 1 23 Jul 11:49:39 11:53:51 81° 76° (ENE) 11:58:05 145.980
ANTELSAT 23 Jul 11:52:27 11:54:39 13° 268° (W) 11:56:53 437.575/2403.000
JAS-2 23 Jul 11:54:30 12:00:06 34° 71° (ENE) 12:05:10 435.910
AISAT 23 Jul 12:01:15 12:04:57 25° 97° (E) 12:08:39 437.250
QB50P1 23 Jul 12:02:59 12:07:08 60° 259° (W) 12:11:21 145.935-145.965
POPSAT HIP 1 23 Jul 12:09:04 12:13:10 51° 260° (W) 12:17:20 437.405
DX 1 23 Jul 12:16:44 12:20:22 25° 97° (E) 12:24:00 434.975-435.025
ESTCUBE 1 23 Jul 12:17:12 12:21:41 68° 102° (ESE) 12:26:08 437.505/2401.250
BUGSAT 1 23 Jul 12:22:49 12:26:52 85° 76° (ENE) 12:30:59 437.445
QB50P2 23 Jul 12:29:28 12:33:04 27° 263° (W) 12:36:42 145.880/145.840
POLYITAN 1 23 Jul 12:32:07 12:35:42 26° 264° (W) 12:39:20 437.675
Oscar 19 23 Jul 12:35:16 12:38:48 19° 66° (ENE) 12:42:21 437.125/150
UKube-1 23 Jul 12:38:33 12:42:32 35° 99° (E) 12:46:31 .
50 SAT 23 Jul 12:40:41 12:44:18 84° 102° (ESE) 12:47:52 437.505
VELOX 1 23 Jul 12:52:40 12:57:07 83° 285° (WNW) 13:01:34 145.980
YUBILEINY 23 Jul 13:02:27 13:04:48 11° 298° (WNW) 13:07:11 435.215
CUBEBUG 1 23 Jul 13:05:42 13:09:56 49° 286° (WNW) 13:14:10 437.445
Gurwin Techsat 1B 23 Jul 13:19:45 13:23:52 23° 67° (ENE) 13:28:01 435.225
SPROUT 23 Jul 13:20:16 13:24:36 86° 283° (WNW) 13:28:55 437.525
RS-15 23 Jul 13:33:20 13:39:46 15° 14° (NNE) 13:46:14 29.354- 29.394
Cosmos 2504 23 Jul 13:33:54 13:40:16 22° 291° (WNW) 13:46:43 435.465 / 435.565
AISAT 23 Jul 13:37:41 13:41:18 25° 290° (WNW) 13:44:54 437.250
JAS-2 23 Jul 13:39:28 13:45:05 31° 262° (W) 13:50:13 435.910
DX 1 23 Jul 13:52:56 13:56:25 24° 291° (WNW) 13:59:54 434.975-435.025
AIST 1 23 Jul 13:57:15 14:01:25 58° 94° (E) 14:05:35
ITAMSAT 1 23 Jul 14:00:04 14:03:35 19° 65° (ENE) 14:07:06 435.822/435.867
SWISSCUBE 23 Jul 14:06:09 14:08:01 12° 92° (E) 14:09:52 437.505
Oscar 19 23 Jul 14:12:54 14:17:45 44° 260° (W) 14:22:38 437.125/150
UKube-1 23 Jul 14:15:29 14:18:16 17° 293° (WNW) 14:21:04 .
AO-85 23 Jul 14:19:22 14:24:19 37° 113° (ESE) 14:29:08 145.980
BEESAT 23 Jul 14:26:43 14:30:05 19° 95° (E) 14:33:27 436.000
TISAT 1 23 Jul 14:31:45 14:35:55 56° 285° (WNW) 14:40:04 437.305
ITUPSAT 1 23 Jul 14:46:15 14:50:27 30° 97° (E) 14:54:38 437.325
Cosmos 2499 23 Jul 14:54:10 14:59:22 17° 80° (E) 15:04:33 435.465 / 435.565
Gurwin Techsat 1B 23 Jul 14:58:39 15:03:33 38° 262° (W) 15:08:29 435.225
AO-7 23 Jul 15:05:49 15:13:41 48° 65° (ENE) 15:21:35 29.400- 29.500
GONETS M04 23 Jul 15:06:21 15:13:35 31° 85° (E) 15:20:49
DANDE 23 Jul 15:35:08 15:35:41 10° 76° (ENE) 15:36:15 436.750
ITAMSAT 1 23 Jul 15:37:36 15:42:38 48° 260° (W) 15:47:42 435.822/435.867
SWISSCUBE 23 Jul 15:41:27 15:46:07 56° 286° (WNW) 15:50:45 437.505
KKS-1 23 Jul 15:43:02 15:45:01 13° 93° (E) 15:46:58 437.445
MOZHAYETS 4 23 Jul 15:45:55 15:48:36 15° 93° (E) 15:51:15
RS-15 23 Jul 15:46:02 15:57:23 39° 46° (NE) 16:08:32 29.354- 29.394
CUSAT 1 23 Jul 15:50:09 15:53:00 64° 262° (W) 15:56:31 437.405
AO-85 23 Jul 16:00:13 16:04:50 28° 307° (NW) 16:09:19 145.980
HORYU 2 23 Jul 16:02:12 16:04:35 14° 66° (ENE) 16:06:56 437.375
BEESAT 23 Jul 16:03:35 16:07:57 36° 289° (WNW) 16:12:16 436.000
ITUPSAT 1 23 Jul 16:24:21 16:28:05 23° 292° (WNW) 16:31:50 437.325
STARS 23 Jul 16:32:01 16:35:31 22° 96° (E) 16:38:59 437.465
Cosmos 2499 23 Jul 16:42:27 16:51:21 86° 276° (W) 17:00:13 435.465 / 435.565
AO-7 23 Jul 16:59:08 17:06:30 34° 261° (W) 17:13:57 29.400- 29.500
GONETS M04 23 Jul 17:01:37 17:09:57 49° 282° (WNW) 17:18:20
KKS-1 23 Jul 17:17:28 17:21:47 49° 287° (WNW) 17:26:06 437.445
DANDE 23 Jul 17:17:34 17:18:18 11° 267° (W) 17:19:02 436.750
NOAA 15 23 Jul 17:20:44 17:24:48 23° 67° (ENE) 17:28:53 137.62
SO-50 23 Jul 17:21:09 17:23:58 16° 47° (NE) 17:26:44 436.795
MOZHAYETS 4 23 Jul 17:21:37 17:25:55 42° 287° (WNW) 17:30:12
HORYU 2 23 Jul 17:36:23 17:40:41 47° 260° (W) 17:45:02 437.375
GOMX 1 23 Jul 17:49:56 17:52:44 18° 68° (ENE) 17:55:34 467.674
RS-15 23 Jul 17:58:26 18:10:33 64° 248° (WSW) 18:22:24 29.354- 29.394
Cubesat XI-IV 23 Jul 18:00:28 18:05:29 42° 71° (ENE) 18:10:31 437.490
BRITE-PL 23 Jul 18:03:09 18:07:20 66° 76° (ENE) 18:11:27 437.365/2234.400
DOVE 4 23 Jul 18:05:25 18:06:45 11° 64° (ENE) 18:08:05 437.250
STARS 23 Jul 18:08:02 18:11:48 27° 290° (WNW) 18:15:32 437.465
LilacSat-2 23 Jul 18:13:43 18:17:25 47° 75° (ENE) 18:21:10 437.200
CUTE-I 23 Jul 18:25:06 18:30:26 74° 75° (ENE) 18:35:49 437.470
NOAA 18 23 Jul 18:26:13 18:31:43 78° 75° (ENE) 18:37:17 137.9125
CUBESAT XI-V 23 Jul 18:29:25 18:34:00 70° 285° (WNW) 18:38:35 437.345
Cosmos 2499 23 Jul 18:40:39 18:45:38 16° 294° (WNW) 18:50:37 435.465 / 435.565
PHONESAT 2.4 23 Jul 18:41:21 18:44:22 59° 153° (SSE) 18:47:25 2401.200-2431.200
BEESAT 3 23 Jul 18:51:35 18:54:38 22° 111° (ESE) 18:57:44 437.485
BEESAT 2 23 Jul 18:51:49 18:52:40 11° 108° (ESE) 18:53:31 435.950
NOAA 15 23 Jul 18:59:30 19:04:20 37° 262° (W) 19:09:11 137.62
SO-50 23 Jul 19:00:18 19:04:48 55° 244° (WSW) 19:09:09 436.795
HO-68 23 Jul 19:02:28 19:08:14 27° 63° (ENE) 19:14:01 435.675
GOMX 1 23 Jul 19:27:00 19:30:37 29° 264° (W) 19:34:17 467.674
CANX-2 23 Jul 19:34:49 19:38:34 30° 72° (ENE) 19:42:20 2200.000
DOVE 4 23 Jul 19:39:51 19:43:54 51° 261° (W) 19:48:08 437.250
Cubesat XI-IV 23 Jul 19:41:39 19:45:39 21° 265° (W) 19:49:40 437.490
CUTE 1.7 + AOD 2 23 Jul 19:48:49 19:52:47 38° 73° (ENE) 19:56:45 437.475
AAUSAT CUBESAT 2 23 Jul 19:53:27 19:56:00 16° 68° (ENE) 19:58:32 437.432
STRAND 1 23 Jul 19:57:33 20:02:33 52° 100° (E) 20:07:29 437.568
UWE-3 23 Jul 20:06:34 20:09:07 15° 66° (ENE) 20:11:42 435.000/436.395/437.385
CUTE-I 23 Jul 20:09:20 20:10:57 11° 269° (W) 20:12:33 437.470
NOAA 18 23 Jul 20:11:23 20:12:53 11° 269° (W) 20:14:24 137.9125
PCSat 23 Jul 20:11:27 20:16:49 70° 114° (ESE) 20:22:13 145.827
ZACube-1 23 Jul 20:17:08 20:18:58 12° 65° (ENE) 20:20:50 437.345
PHONESAT 2.4 23 Jul 20:18:07 20:21:00 35° 349° (N) 20:23:52 2401.200-2431.200
CUBEBUG 2 23 Jul 20:18:29 20:22:24 30° 71° (ENE) 20:26:25 437.445
FUNcube-1 23 Jul 20:18:40 20:20:21 12° 65° (ENE) 20:22:02 145.935
RS-15 23 Jul 20:18:52 20:20:30 10° 266° (W) 20:22:07 29.354- 29.394
CINEMA 3 23 Jul 20:20:27 20:24:47 71° 259° (WSW) 20:29:23 145.822/145.860
BEESAT 2 23 Jul 20:26:10 20:30:00 50° 302° (WNW) 20:33:53 435.950
BEESAT 3 23 Jul 20:28:57 20:32:11 25° 306° (NW) 20:35:28 437.485
SEEDS 23 Jul 20:35:09 20:39:23 82° 257° (WSW) 20:43:39 437.485
Cosmos 2491 23 Jul 20:37:39 20:41:47 14° 78° (ENE) 20:45:56 435.465 / 435.565
HO-68 23 Jul 20:48:34 20:55:30 52° 259° (W) 21:02:31 435.675
DELFI C3 23 Jul 20:51:28 20:52:33 11° 67° (ENE) 20:53:37 145.870
COMPASS 1 23 Jul 20:54:34 20:58:44 70° 258° (WSW) 21:02:55 437.405
Oscar 11 23 Jul 21:04:06 21:08:12 42° 73° (ENE) 21:12:19 145.826/435.025
CANX-2 23 Jul 21:11:24 21:14:25 19° 266° (W) 21:17:27 2200.000
YUBILEINY 23 Jul 21:11:58 21:20:32 51° 78° (ENE) 21:28:59 435.215
O/OREOS (USA 219) 23 Jul 21:20:26 21:24:48 59° 107° (ESE) 21:29:12 437.305
CUTE 1.7 + AOD 2 23 Jul 21:26:20 21:28:44 15° 267° (W) 21:31:09 437.475
AAUSAT CUBESAT 2 23 Jul 21:27:21 21:31:10 34° 262° (W) 21:34:59 437.432
ISS 23 Jul 21:30:39 21:32:37 15° 128° (SE) 21:34:35 145.825
PRISM 23 Jul 21:35:21 21:39:27 79° 104° (ESE) 21:43:32 437.425
Cosmos 2504 23 Jul 21:36:22 21:42:16 21° 68° (ENE) 21:47:53 435.465 / 435.565
STRAND 1 23 Jul 21:38:08 21:41:14 16° 295° (WNW) 21:44:20 437.568
UWE-3 23 Jul 21:40:48 21:45:06 46° 261° (W) 21:49:33 435.000/436.395/437.385
M-CUBED/EXP-1 PRIME 23 Jul 21:46:54 21:50:26 72° 72° (ENE) 21:54:18 437.505
ZACube-1 23 Jul 21:50:19 21:54:42 56° 260° (W) 21:59:12 437.345
FUNcube-1 23 Jul 21:51:37 21:56:00 58° 260° (W) 22:00:31 145.935
AIST 2 23 Jul 21:53:09 21:57:09 57° 116° (ESE) 22:01:12 435.215
PHONESAT 2.4 23 Jul 21:55:10 21:57:56 30° 6° (N) 22:00:43 2401.200-2431.200
CUBEBUG 2 23 Jul 21:55:32 21:58:59 22° 266° (W) 22:02:33 437.445
PCSat 23 Jul 21:57:26 22:00:43 16° 311° (NW) 22:04:02 145.827
HUMSAT D 23 Jul 22:03:58 22:07:59 40° 73° (ENE) 22:12:02 437.325/437.525
ANTELSAT 23 Jul 22:10:00 22:12:20 14° 92° (E) 22:14:38 437.575/2403.000
AUBIESAT-1 23 Jul 22:16:30 22:20:02 55° 255° (WSW) 22:23:53 437.475
DELFI C3 23 Jul 22:23:05 22:26:57 47° 261° (W) 22:30:49 145.870
Cosmos 2491 23 Jul 22:28:34 22:37:17 89° 97° (E) 22:46:03 435.465 / 435.565
Oscar 11 23 Jul 22:42:16 22:44:29 14° 267° (W) 22:46:44 145.826/435.025
TIGRISAT 23 Jul 22:51:11 22:55:33 38° 98° (E) 22:59:47 435.000
AO-85 23 Jul 22:56:19 22:58:10 12° 44° (NE) 22:59:57 145.980
AISAT 23 Jul 22:56:33 22:59:11 16° 67° (ENE) 23:01:49 437.250
O/OREOS (USA 219) 23 Jul 23:02:59 23:04:36 12° 303° (WNW) 23:06:11 437.305
ISS 23 Jul 23:05:42 23:08:47 39° 322° (NW) 23:11:53 145.825
UNISAT 6 23 Jul 23:06:01 23:10:39 62° 100° (E) 23:15:09 437.425
YUBILEINY 23 Jul 23:09:30 23:16:50 31° 276° (W) 23:24:10 435.215
DX 1 23 Jul 23:10:13 23:12:45 15° 67° (ENE) 23:15:18 434.975-435.025
ESTCUBE 1 23 Jul 23:13:29 23:17:42 41° 73° (ENE) 23:21:55 437.505/2401.250
50 SAT 23 Jul 23:15:37 23:18:29 22° 71° (ENE) 23:21:22 437.505
Cosmos 2504 23 Jul 23:28:17 23:36:22 66° 268° (W) 23:43:50 435.465 / 435.565
UKube-1 23 Jul 23:30:34 23:33:45 21° 69° (ENE) 23:36:57 .
PHONESAT 2.4 23 Jul 23:31:37 23:34:42 81° 25° (NNE) 23:37:46 2401.200-2431.200
NANOSAT C BR1 23 Jul 23:32:09 23:34:37 15° 94° (E) 23:37:02 145.865
AIST 2 23 Jul 23:34:04 23:35:59 13° 312° (NW) 23:37:54 435.215
DUCHIFAT 1 23 Jul 23:38:09 23:40:52 16° 94° (E) 23:43:33 145.980
HUMSAT D 23 Jul 23:41:27 23:43:44 14° 267° (W) 23:46:03 437.325/437.525
ANTELSAT 23 Jul 23:44:48 23:49:17 48° 287° (WNW) 23:53:39 437.575/2403.000
VELOX 1 23 Jul 23:46:35 23:50:52 56° 74° (ENE) 23:55:09 145.980
QB50P1 23 Jul 23:51:14 23:54:54 27° 97° (E) 23:58:31 145.935-145.965
POPSAT HIP 1 23 Jul 23:57:10 00:01:00 31° 97° (E) 00:04:49 437.405
CUBEBUG 1 23 Jul 23:58:01 00:02:19 89° 91° (E) 00:06:40 437.445
BUGSAT 1 24 Jul 00:08:56 00:11:33 16° 94° (E) 00:14:11 437.445
AIST 1 24 Jul 00:10:07 00:11:05 11° 72° (ENE) 00:12:03
SPROUT 24 Jul 00:10:28 00:14:31 45° 74° (ENE) 00:18:37 437.525
QB50P2 24 Jul 00:16:46 00:21:01 60° 101° (E) 00:25:13 145.880/145.840
POLYITAN 1 24 Jul 00:19:24 00:23:41 61° 101° (E) 00:27:54 437.675
TIGRISAT 24 Jul 00:28:46 00:31:52 18° 293° (WNW) 00:34:56 435.000
Cosmos 2491 24 Jul 00:30:22 00:35:15 16° 294° (WNW) 00:40:11 435.465 / 435.565
AISAT 24 Jul 00:31:13 00:35:18 39° 261° (W) 00:39:26 437.250
AO-85 24 Jul 00:34:54 00:39:08 62° 244° (WSW) 00:43:03 145.980
DX 1 24 Jul 00:44:32 00:48:35 39° 261° (W) 00:52:39 434.975-435.025
UNISAT 6 24 Jul 00:45:09 00:46:45 12° 296° (WNW) 00:48:19 437.425
50 SAT 24 Jul 00:49:24 00:52:01 19° 264° (W) 00:54:40 437.505
JAS-2 24 Jul 00:50:45 00:55:34 35° 99° (E) 01:00:43 435.910
ESTCUBE 1 24 Jul 00:52:03 00:54:39 15° 267° (W) 00:57:14 437.505/2401.250
UKube-1 24 Jul 01:05:53 01:09:36 28° 263° (W) 01:13:20 .
NANOSAT C BR1 24 Jul 01:06:30 01:10:27 38° 287° (WNW) 01:14:23 145.865
PHONESAT 2.4 24 Jul 01:08:59 01:10:55 16° 216° (SW) 01:12:51 2401.200-2431.200
SWISSCUBE 24 Jul 01:10:48 01:11:57 11° 63° (ENE) 01:13:07 437.505
DUCHIFAT 1 24 Jul 01:12:45 01:16:37 34° 288° (WNW) 01:20:28 145.980
TISAT 1 24 Jul 01:19:48 01:23:55 67° 76° (ENE) 01:28:06 437.305
GONETS M04 24 Jul 01:22:59 01:25:39 11° 62° (ENE) 01:28:18
VELOX 1 24 Jul 01:27:01 01:27:38 10° 268° (W) 01:28:14 145.980
QB50P1 24 Jul 01:27:14 01:30:30 21° 291° (WNW) 01:33:44 145.935-145.965
BEESAT 24 Jul 01:30:39 01:33:35 17° 66° (ENE) 01:36:33 436.000
POPSAT HIP 1 24 Jul 01:33:31 01:36:32 19° 292° (WNW) 01:39:32 437.405
Gurwin Techsat 1B 24 Jul 01:41:10 01:42:31 11° 91° (E) 01:43:52 435.225
BUGSAT 1 24 Jul 01:43:07 01:47:00 35° 288° (WNW) 01:50:52 437.445
AIST 1 24 Jul 01:44:46 01:48:58 52° 266° (W) 01:53:12
SPROUT 24 Jul 01:48:55 01:50:40 12° 268° (W) 01:52:26 437.525
ITUPSAT 1 24 Jul 01:50:04 01:54:01 26° 69° (ENE) 01:57:57 437.325
QB50P2 24 Jul 01:55:32 01:56:15 10° 295° (WNW) 01:56:58 145.880/145.840
POLYITAN 1 24 Jul 01:58:25 01:58:54 10° 295° (WNW) 01:59:23 437.675
Oscar 19 24 Jul 02:27:15 02:32:27 85° 104° (ESE) 02:37:37 437.125/150
JAS-2 24 Jul 02:36:20 02:40:30 24° 292° (WNW) 02:44:55 435.910
Cosmos 2499 24 Jul 02:39:47 02:46:14 27° 71° (ENE) 02:52:18 435.465 / 435.565
SWISSCUBE 24 Jul 02:44:19 02:49:05 72° 257° (WSW) 02:53:54 437.505
MOZHAYETS 4 24 Jul 02:46:28 02:47:40 11° 64° (ENE) 02:48:52
BEESAT 24 Jul 03:06:23 03:10:58 46° 260° (W) 03:15:35 436.000
CUSAT 1 24 Jul 03:11:46 03:12:33 10° 94° (E) 03:13:19 437.405
AO-7 24 Jul 03:12:58 03:17:57 17° 93° (E) 03:22:53 29.400- 29.500
GONETS M04 24 Jul 03:15:15 03:24:03 72° 82° (E) 03:32:52
Gurwin Techsat 1B 24 Jul 03:17:37 03:22:56 74° 285° (WNW) 03:28:14 435.225
STARS 24 Jul 03:26:46 03:29:04 14° 66° (ENE) 03:31:21 437.465
ITUPSAT 1 24 Jul 03:27:34 03:31:42 28° 263° (W) 03:35:50 437.325
ITAMSAT 1 24 Jul 03:53:28 03:58:41 79° 103° (ESE) 04:03:51 435.822/435.867
JUGNU 24 Jul 03:58:22 04:01:51 16° 173° (S) 04:05:19 437.505
Oscar 19 24 Jul 04:10:15 04:11:00 10° 298° (WNW) 04:11:45 437.125/150
KKS-1 24 Jul 04:11:51 04:16:16 82° 257° (WSW) 04:20:44 437.445
MOZHAYETS 4 24 Jul 04:19:37 04:24:13 66° 259° (W) 04:28:51
Cosmos 2499 24 Jul 04:32:11 04:39:39 49° 271° (W) 04:46:35 435.465 / 435.565
DANDE 24 Jul 04:36:24 04:42:36 45° 96° (E) 04:47:21 436.750
BEESAT 2 24 Jul 04:47:10 04:50:47 32° 55° (NE) 04:54:22 435.950
BEESAT 3 24 Jul 04:48:11 04:52:07 65° 59° (ENE) 04:56:02 437.485
CUSAT 1 24 Jul 04:49:45 04:54:30 46° 278° (W) 04:58:09 437.405
STARS 24 Jul 05:00:48 05:04:59 45° 261° (W) 05:09:13 437.465
PCSat 24 Jul 05:02:57 05:07:38 29° 55° (NE) 05:12:17 145.827
AO-7 24 Jul 05:03:06 05:11:29 84° 289° (WNW) 05:19:48 29.400- 29.500
GONETS M04 24 Jul 05:13:58 05:19:54 20° 279° (W) 05:25:51
CUBESAT XI-V 24 Jul 05:29:09 05:33:46 78° 76° (ENE) 05:38:23 437.345
HORYU 2 24 Jul 05:30:26 05:34:40 40° 99° (E) 05:38:50 437.375
ISS 24 Jul 05:35:43 05:38:53 48° 39° (NE) 05:42:03 145.825
ITAMSAT 1 24 Jul 05:35:54 05:37:25 11° 298° (WNW) 05:38:56 435.822/435.867
NOAA 15 24 Jul 05:41:50 05:42:18 10° 91° (E) 05:42:48 137.62
JUGNU 24 Jul 05:46:23 05:50:08 17° 183° (S) 05:53:53 437.505
RS-15 24 Jul 06:07:19 06:16:19 28° 102° (ESE) 06:25:38 29.354- 29.394
SRMSAT 24 Jul 06:08:20 06:11:42 16° 172° (S) 06:15:04 437.500
BRITE-PL 24 Jul 06:10:03 06:14:14 29° 97° (E) 06:18:40 437.365/2234.400
AIST 2 24 Jul 06:18:25 06:21:01 16° 50° (NE) 06:23:36 435.215
DANDE 24 Jul 06:20:55 06:25:14 19° 282° (WNW) 06:28:51 436.750
Cubesat XI-IV 24 Jul 06:21:37 06:25:40 21° 95° (E) 06:29:40 437.490
BEESAT 2 24 Jul 06:25:40 06:28:21 17° 250° (WSW) 06:31:00 435.950
CUTE-I 24 Jul 06:45:44 06:50:42 38° 98° (E) 06:55:35 437.470
PCSat 24 Jul 06:46:10 06:51:00 34° 251° (WSW) 06:55:50 145.827
NOAA 18 24 Jul 06:51:47 06:57:03 43° 100° (E) 07:02:16 137.9125
AO-7 24 Jul 06:58:12 07:03:01 17° 306° (NW) 07:07:49 29.400- 29.500
HORYU 2 24 Jul 07:08:05 07:10:51 16° 293° (WNW) 07:13:36 437.375
STRAND 1 24 Jul 07:10:05 07:15:06 54° 73° (ENE) 07:20:07 437.568
ISS 24 Jul 07:13:35 07:14:59 12° 233° (SW) 07:16:23 145.825
NOAA 15 24 Jul 07:17:18 07:22:34 77° 285° (WNW) 07:27:49 137.62
LilacSat-2 24 Jul 07:24:15 07:28:05 68° 284° (WNW) 07:31:54 437.200
GOMX 1 24 Jul 07:29:54 07:34:56 90° 307° (NW) 07:40:16 467.674
O/OREOS (USA 219) 24 Jul 07:33:25 07:37:56 67° 69° (ENE) 07:42:27 437.305
JUGNU 24 Jul 07:36:12 07:38:23 12° 193° (SSW) 07:40:34 437.505
DOVE 4 24 Jul 07:40:45 07:45:46 54° 99° (E) 07:50:56 437.250
BRITE-PL 24 Jul 07:48:37 07:52:34 26° 289° (WNW) 07:56:46 437.365/2234.400
AIST 2 24 Jul 07:55:44 07:59:42 44° 245° (WSW) 08:03:39 435.215
SRMSAT 24 Jul 07:56:20 08:00:08 18° 182° (S) 08:03:56 437.500
Cubesat XI-IV 24 Jul 08:00:51 08:05:50 40° 289° (WNW) 08:10:46 437.490
RS-15 24 Jul 08:16:13 08:27:34 71° 302° (WNW) 08:39:38 29.354- 29.394
CINEMA 3 24 Jul 08:18:09 08:22:50 37° 97° (E) 08:27:26 145.822/145.860
HO-68 24 Jul 08:19:51 08:26:25 37° 98° (E) 08:32:56 435.675
PRISM 24 Jul 08:21:42 08:25:24 34° 72° (ENE) 08:29:06 437.425
SEEDS 24 Jul 08:23:05 08:26:10 20° 95° (E) 08:29:14 437.485
CUTE-I 24 Jul 08:26:18 08:30:28 24° 293° (WNW) 08:34:37 437.470
NOAA 18 24 Jul 08:33:10 08:37:23 23° 294° (WNW) 08:41:33 137.9125
COMPASS 1 24 Jul 08:41:13 08:44:29 22° 95° (E) 08:47:43 437.405
Cosmos 2491 24 Jul 08:43:18 08:51:19 38° 75° (ENE) 08:59:18 435.465 / 435.565
STRAND 1 24 Jul 08:51:41 08:54:32 15° 267° (W) 08:57:25 437.568
CANX-2 24 Jul 08:58:07 09:02:21 85° 283° (WNW) 09:06:32 2200.000
SO-50 24 Jul 09:10:35 09:15:28 83° 299° (WNW) 09:20:21 436.795
CUTE 1.7 + AOD 2 24 Jul 09:12:16 09:16:28 66° 283° (WNW) 09:20:37 437.475
AAUSAT CUBESAT 2 24 Jul 09:12:28 09:16:23 42° 99° (E) 09:20:16 437.432
DOVE 4 24 Jul 09:19:52 09:23:00 17° 293° (WNW) 09:26:12 437.250
UWE-3 24 Jul 09:33:38 09:38:05 46° 99° (E) 09:42:24 435.000/436.395/437.385
ZACube-1 24 Jul 09:42:09 09:46:18 35° 97° (E) 09:50:21 437.345
FUNcube-1 24 Jul 09:43:12 09:47:17 34° 97° (E) 09:51:16 145.935
SRMSAT 24 Jul 09:46:03 09:48:33 13° 192° (SSW) 09:51:02 437.500
TIGRISAT 24 Jul 09:46:53 09:50:31 24° 69° (ENE) 09:54:15 435.000
CUBEBUG 2 24 Jul 09:48:19 09:53:05 79° 283° (WNW) 09:57:41 437.445
CINEMA 3 24 Jul 09:55:52 09:59:39 22° 292° (WNW) 10:03:25 145.822/145.860
SEEDS 24 Jul 09:58:20 10:01:49 26° 289° (WNW) 10:05:18 437.485
PRISM 24 Jul 09:58:28 10:00:47 15° 266° (W) 10:03:06 437.425
AUBIESAT-1 24 Jul 09:59:08 10:01:44 15° 97° (E) 10:04:19 437.475
UNISAT 6 24 Jul 10:01:28 10:05:39 36° 72° (ENE) 10:09:55 437.425
DELFI C3 24 Jul 10:04:09 10:07:25 25° 96° (E) 10:10:41 145.870
HO-68 24 Jul 10:07:33 10:14:01 37° 294° (WNW) 10:20:28 435.675
YUBILEINY 24 Jul 10:08:17 10:16:54 65° 92° (E) 10:25:35 435.215
Cosmos 2504 24 Jul 10:10:34 10:16:35 21° 81° (E) 10:22:40 435.465 / 435.565
COMPASS 1 24 Jul 10:16:38 10:19:55 23° 289° (WNW) 10:23:13 437.405
Oscar 11 24 Jul 10:30:14 10:34:29 58° 285° (WNW) 10:38:41 145.826/435.025
RS-15 24 Jul 10:34:06 10:42:45 23° 329° (NNW) 10:51:42 29.354- 29.394
ANTELSAT 24 Jul 10:39:37 10:44:11 82° 258° (WSW) 10:48:53 437.575/2403.000
Cosmos 2491 24 Jul 10:40:06 10:48:03 41° 273° (W) 10:56:02 435.465 / 435.565
QB50P1 24 Jul 10:41:53 10:44:06 14° 67° (ENE) 10:46:20 145.935-145.965
POPSAT HIP 1 24 Jul 10:47:34 10:50:10 16° 68° (ENE) 10:52:48 437.405
AAUSAT CUBESAT 2 24 Jul 10:49:34 10:51:27 13° 293° (WNW) 10:53:20 437.432
SO-50 24 Jul 10:55:16 10:56:40 11° 317° (NW) 10:58:03 436.795
M-CUBED/EXP-1 PRIME 24 Jul 11:02:38 11:07:20 86° 286° (WNW) 11:12:02 437.505
JAS-2 24 Jul 11:04:09 11:05:33 11° 63° (ENE) 11:06:55 435.910
QB50P2 24 Jul 11:06:26 11:10:04 29° 71° (ENE) 11:13:46 145.880/145.840
POLYITAN 1 24 Jul 11:09:02 11:12:43 29° 71° (ENE) 11:16:26 437.675
UWE-3 24 Jul 11:11:27 11:14:05 15° 294° (WNW) 11:16:41 435.000/436.395/437.385
ESTCUBE 1 24 Jul 11:11:38 11:12:48 11° 92° (E) 11:13:57 437.505/2401.250
ZACube-1 24 Jul 11:19:13 11:22:16 18° 292° (WNW) 11:25:17 437.345
FUNcube-1 24 Jul 11:20:06 11:23:13 19° 292° (WNW) 11:26:18 145.935
